M I D A S
Marine Information and Data Acquisition System
Tripno 2155 of the Zeeleeuw from 2011-08-01 08:31:43 to 2011-08-01 09:38:39
Back to CruiseResearch ActivitiesStationsMapUnderway DataData graphs

EquipmentUnitsComment
TimeDGPSUTC
LatitudeDGPSDM.mWGS84
LongitudeDGPSDM.mWGS84
TemperatureSBE03/SBE38deg celciusITS90
ConductivitySBE21S/mITS90
SalinitySBE21 Practical Salinity Units
ChlorophylAChelsea fluorimeterg/lCalibrated in Aceton
Missing or incorrect values are displayed as -999
Sea surface data collected by the RV Zeeleeuw from 2011-08-01 06:11:46 to 2011-08-01 10:16:22
                                                                                    Next 1000 lines
Time Latitude Longitude Temperature Conductivity Salinity ChlorophylA
2011-08-01 06:11:56 51°13.635 2°56.021 19.6888 -999 -999 -999
2011-08-01 06:12:01 51°13.635 2°56.021 19.6991 -999 -999 -999
2011-08-01 06:12:06 51°13.635 2°56.021 19.6919 -999 -999 -999
2011-08-01 06:12:11 51°13.635 2°56.02 19.7014 -999 -999 -999
2011-08-01 06:12:16 51°13.635 2°56.02 19.6949 -999 -999 -999
2011-08-01 06:12:21 51°13.635 2°56.02 19.7022 -999 -999 -999
2011-08-01 06:12:26 51°13.636 2°56.02 19.7005 -999 -999 -999
2011-08-01 06:12:30 51°13.635 2°56.02 19.7042 -999 -999 -999
2011-08-01 06:12:35 51°13.636 2°56.02 19.7014 -999 -999 -999
2011-08-01 06:12:40 51°13.636 2°56.019 19.702 -999 -999 -999
2011-08-01 06:12:45 51°13.636 2°56.019 19.7023 -999 -999 -999
2011-08-01 06:12:50 51°13.636 2°56.019 19.7037 -999 -999 -999
2011-08-01 06:12:55 51°13.636 2°56.019 19.7038 -999 -999 -999
2011-08-01 06:13:00 51°13.636 2°56.019 19.7042 -999 -999 -999
2011-08-01 06:13:05 51°13.636 2°56.019 19.7029 -999 -999 -999
2011-08-01 06:13:10 51°13.636 2°56.019 19.706 -999 -999 -999
2011-08-01 06:13:15 51°13.636 2°56.019 19.7057 -999 -999 -999
2011-08-01 06:13:20 51°13.637 2°56.019 19.7057 -999 -999 -999
2011-08-01 06:13:26 51°13.637 2°56.019 19.7061 -999 -999 -999
2011-08-01 06:13:31 51°13.637 2°56.019 19.7068 -999 -999 -999
2011-08-01 06:13:36 51°13.637 2°56.019 19.7085 -999 -999 -999
2011-08-01 06:13:41 51°13.637 2°56.019 19.7083 -999 -999 -999
2011-08-01 06:13:46 51°13.637 2°56.019 19.7085 -999 -999 -999
2011-08-01 06:13:51 51°13.637 2°56.019 19.7072 -999 -999 -999
2011-08-01 06:13:56 51°13.637 2°56.02 19.708 -999 -999 -999
2011-08-01 06:14:01 51°13.637 2°56.02 19.7122 -999 -999 -999
2011-08-01 06:14:06 51°13.637 2°56.02 19.7126 -999 -999 -999
2011-08-01 06:14:11 51°13.636 2°56.02 19.7135 -999 -999 -999
2011-08-01 06:14:16 51°13.636 2°56.02 19.7147 -999 -999 -999
2011-08-01 06:14:20 51°13.637 2°56.02 19.7161 -999 -999 -999
2011-08-01 06:14:26 51°13.637 2°56.02 19.7184 -999 -999 -999
2011-08-01 06:14:30 51°13.637 2°56.02 19.7185 -999 -999 -999
2011-08-01 06:14:35 51°13.637 2°56.02 19.718 -999 -999 -999
2011-08-01 06:14:41 51°13.637 2°56.02 19.718 -999 -999 -999
2011-08-01 06:14:46 51°13.637 2°56.02 19.7154 -999 -999 -999
2011-08-01 06:14:50 51°13.637 2°56.02 19.7185 -999 -999 -999
2011-08-01 06:14:55 51°13.637 2°56.02 19.72 -999 -999 -999
2011-08-01 06:15:01 51°13.637 2°56.02 19.7222 -999 -999 -999
2011-08-01 06:15:06 51°13.637 2°56.02 19.7239 -999 -999 -999
2011-08-01 06:15:10 51°13.637 2°56.02 19.7245 -999 -999 -999
2011-08-01 06:15:15 51°13.637 2°56.019 19.7249 -999 -999 -999
2011-08-01 06:15:21 51°13.637 2°56.019 19.7252 -999 -999 -999
2011-08-01 06:15:26 51°13.637 2°56.019 19.7252 -999 -999 -999
2011-08-01 06:15:31 51°13.637 2°56.019 19.7238 -999 -999 -999
2011-08-01 06:15:36 51°13.637 2°56.019 19.7222 -999 -999 -999
2011-08-01 06:15:40 51°13.637 2°56.019 19.7221 -999 -999 -999
2011-08-01 06:15:45 51°13.637 2°56.019 19.7227 -999 -999 -999
2011-08-01 06:15:50 51°13.637 2°56.018 19.7239 -999 -999 -999
2011-08-01 06:15:56 51°13.637 2°56.019 19.7245 -999 -999 -999
2011-08-01 06:16:01 51°13.637 2°56.019 19.7236 -999 -999 -999
2011-08-01 06:16:05 51°13.637 2°56.019 19.7239 -999 -999 -999
2011-08-01 06:16:10 51°13.637 2°56.019 19.7252 -999 -999 -999
2011-08-01 06:16:15 51°13.637 2°56.019 19.7264 -999 -999 -999
2011-08-01 06:16:20 51°13.637 2°56.019 19.7272 -999 -999 -999
2011-08-01 06:16:25 51°13.637 2°56.019 19.7268 -999 -999 -999
2011-08-01 06:16:30 51°13.637 2°56.019 19.7268 -999 -999 -999
2011-08-01 06:16:35 51°13.637 2°56.019 19.7257 -999 -999 -999
2011-08-01 06:16:40 51°13.636 2°56.019 19.7263 -999 -999 -999
2011-08-01 06:16:45 51°13.636 2°56.019 19.725 -999 -999 -999
2011-08-01 06:16:51 51°13.636 2°56.019 19.7233 -999 -999 -999
2011-08-01 06:16:56 51°13.636 2°56.019 19.7243 -999 -999 -999
2011-08-01 06:17:01 51°13.636 2°56.019 19.7259 -999 -999 -999
2011-08-01 06:17:05 51°13.636 2°56.019 19.7246 -999 -999 -999
2011-08-01 06:17:11 51°13.636 2°56.019 19.7238 -999 -999 -999
2011-08-01 06:17:16 51°13.636 2°56.019 19.7236 -999 -999 -999
2011-08-01 06:17:20 51°13.637 2°56.019 19.724 -999 -999 -999
2011-08-01 06:17:25 51°13.637 2°56.019 19.7236 -999 -999 -999
2011-08-01 06:17:31 51°13.637 2°56.019 19.7238 -999 -999 -999
2011-08-01 06:17:36 51°13.637 2°56.019 19.7234 -999 -999 -999
2011-08-01 06:17:40 51°13.637 2°56.019 19.7234 -999 -999 -999
2011-08-01 06:17:45 51°13.637 2°56.019 19.7234 -999 -999 -999
2011-08-01 06:17:50 51°13.637 2°56.019 19.722 -999 -999 -999
2011-08-01 06:17:55 51°13.637 2°56.019 19.7231 -999 -999 -999
2011-08-01 06:18:00 51°13.636 2°56.019 19.7234 -999 -999 -999
2011-08-01 06:18:05 51°13.636 2°56.019 19.7238 -999 -999 -999
2011-08-01 06:18:10 51°13.636 2°56.019 19.7238 -999 -999 -999
2011-08-01 06:18:15 51°13.636 2°56.019 19.7249 -999 -999 -999
2011-08-01 06:18:20 51°13.636 2°56.019 19.7234 -999 -999 -999
2011-08-01 06:18:25 51°13.636 2°56.019 19.7264 -999 -999 -999
2011-08-01 06:18:30 51°13.636 2°56.019 19.7272 -999 -999 -999
2011-08-01 06:18:35 51°13.636 2°56.019 19.7284 -999 -999 -999
2011-08-01 06:18:40 51°13.636 2°56.019 19.7287 -999 -999 -999
2011-08-01 06:18:45 51°13.636 2°56.019 19.7294 -999 -999 -999
2011-08-01 06:18:50 51°13.636 2°56.019 19.7292 -999 -999 -999
2011-08-01 06:18:55 51°13.636 2°56.019 19.7304 -999 -999 -999
2011-08-01 06:19:00 51°13.636 2°56.019 19.7301 -999 -999 -999
2011-08-01 06:19:05 51°13.636 2°56.019 19.7307 -999 -999 -999
2011-08-01 06:19:10 51°13.636 2°56.019 19.7318 -999 -999 -999
2011-08-01 06:19:15 51°13.636 2°56.019 19.7314 -999 -999 -999
2011-08-01 06:19:20 51°13.636 2°56.019 19.7298 -999 -999 -999
2011-08-01 06:19:25 51°13.636 2°56.019 19.73 -999 -999 -999
2011-08-01 06:19:30 51°13.636 2°56.019 19.7317 -999 -999 -999
2011-08-01 06:19:35 51°13.636 2°56.019 19.7326 -999 -999 -999
2011-08-01 06:19:40 51°13.636 2°56.019 19.7346 -999 -999 -999
2011-08-01 06:19:45 51°13.636 2°56.019 19.7359 -999 -999 -999
2011-08-01 06:19:50 51°13.636 2°56.018 19.7358 -999 -999 -999
2011-08-01 06:19:55 51°13.636 2°56.018 19.7354 -999 -999 -999
2011-08-01 06:20:00 51°13.636 2°56.018 19.7346 -999 -999 -999
2011-08-01 06:20:05 51°13.636 2°56.018 19.7348 -999 -999 -999
2011-08-01 06:20:11 51°13.636 2°56.018 19.7339 -999 -999 -999
2011-08-01 06:20:16 51°13.636 2°56.018 19.7338 -999 -999 -999
2011-08-01 06:20:21 51°13.636 2°56.018 19.7336 -999 -999 -999
2011-08-01 06:20:25 51°13.636 2°56.018 19.734 -999 -999 -999
2011-08-01 06:20:31 51°13.636 2°56.018 19.7351 -999 -999 -999
2011-08-01 06:20:36 51°13.636 2°56.019 19.7338 -999 -999 -999
2011-08-01 06:20:41 51°13.636 2°56.018 19.735 -999 -999 -999
2011-08-01 06:20:45 51°13.636 2°56.018 19.7358 -999 -999 -999
2011-08-01 06:20:51 51°13.636 2°56.018 19.7357 -999 -999 -999
2011-08-01 06:20:56 51°13.636 2°56.018 19.7368 -999 -999 -999
2011-08-01 06:21:01 51°13.636 2°56.018 19.7376 -999 -999 -999
2011-08-01 06:21:05 51°13.636 2°56.018 19.7384 -999 -999 -999
2011-08-01 06:21:11 51°13.635 2°56.018 19.7386 -999 -999 -999
2011-08-01 06:21:16 51°13.635 2°56.018 19.7395 -999 -999 -999
2011-08-01 06:21:21 51°13.635 2°56.018 19.7389 -999 -999 -999
2011-08-01 06:21:26 51°13.635 2°56.018 19.7395 -999 -999 -999
2011-08-01 06:21:31 51°13.635 2°56.018 19.7395 -999 -999 -999
2011-08-01 06:21:36 51°13.635 2°56.019 19.7395 -999 -999 -999
2011-08-01 06:21:41 51°13.635 2°56.019 19.7408 -999 -999 -999
2011-08-01 06:21:46 51°13.635 2°56.019 19.7412 -999 -999 -999
2011-08-01 06:21:51 51°13.635 2°56.019 19.7418 -999 -999 -999
2011-08-01 06:21:55 51°13.635 2°56.019 19.7423 -999 -999 -999
2011-08-01 06:22:00 51°13.635 2°56.019 19.7432 -999 -999 -999
2011-08-01 06:22:05 51°13.635 2°56.019 19.7432 -999 -999 -999
2011-08-01 06:22:10 51°13.635 2°56.019 19.7441 -999 -999 -999
2011-08-01 06:22:15 51°13.636 2°56.019 19.7441 -999 -999 -999
2011-08-01 06:22:20 51°13.636 2°56.019 19.7431 -999 -999 -999
2011-08-01 06:22:25 51°13.636 2°56.019 19.7433 -999 -999 -999
2011-08-01 06:22:30 51°13.636 2°56.019 19.7445 -999 -999 -999
2011-08-01 06:22:35 51°13.636 2°56.019 19.7451 -999 -999 -999
2011-08-01 06:22:40 51°13.636 2°56.019 19.7459 -999 -999 -999
2011-08-01 06:22:45 51°13.636 2°56.019 19.7454 -999 -999 -999
2011-08-01 06:22:50 51°13.636 2°56.019 19.7454 -999 -999 -999
2011-08-01 06:22:55 51°13.636 2°56.019 19.7459 -999 -999 -999
2011-08-01 06:23:00 51°13.636 2°56.019 19.7453 -999 -999 -999
2011-08-01 06:23:05 51°13.636 2°56.019 19.7456 -999 -999 -999
2011-08-01 06:23:11 51°13.636 2°56.019 19.745 -999 -999 -999
2011-08-01 06:23:15 51°13.636 2°56.019 19.7457 -999 -999 -999
2011-08-01 06:23:21 51°13.636 2°56.019 19.7464 -999 -999 -999
2011-08-01 06:23:26 51°13.636 2°56.019 19.7475 -999 -999 -999
2011-08-01 06:23:30 51°13.636 2°56.019 19.7472 -999 -999 -999
2011-08-01 06:23:35 51°13.636 2°56.019 19.7471 -999 -999 -999
2011-08-01 06:23:41 51°13.636 2°56.019 19.7483 -999 -999 -999
2011-08-01 06:23:45 51°13.636 2°56.019 19.7476 -999 -999 -999
2011-08-01 06:23:50 51°13.636 2°56.019 19.7488 -999 -999 -999
2011-08-01 06:23:56 51°13.636 2°56.019 19.7504 -999 -999 -999
2011-08-01 06:24:00 51°13.636 2°56.019 19.7502 -999 -999 -999
2011-08-01 06:24:05 51°13.636 2°56.019 19.7501 -999 -999 -999
2011-08-01 06:24:10 51°13.636 2°56.019 19.7508 -999 -999 -999
2011-08-01 06:24:15 51°13.636 2°56.019 19.7515 -999 -999 -999
2011-08-01 06:24:20 51°13.636 2°56.019 19.7516 -999 -999 -999
2011-08-01 06:24:25 51°13.636 2°56.019 19.753 -999 -999 -999
2011-08-01 06:24:30 51°13.636 2°56.019 19.7538 -999 -999 -999
2011-08-01 06:24:35 51°13.636 2°56.019 19.7548 -999 -999 -999
2011-08-01 06:24:40 51°13.636 2°56.019 19.7553 -999 -999 -999
2011-08-01 06:24:45 51°13.636 2°56.019 19.7543 -999 -999 -999
2011-08-01 06:24:51 51°13.636 2°56.019 19.7545 -999 -999 -999
2011-08-01 06:24:56 51°13.636 2°56.019 19.7549 -999 -999 -999
2011-08-01 06:25:01 51°13.636 2°56.019 19.7549 -999 -999 -999
2011-08-01 06:25:06 51°13.636 2°56.019 19.754 -999 -999 -999
2011-08-01 06:25:11 51°13.636 2°56.019 19.7537 -999 -999 -999
2011-08-01 06:25:16 51°13.636 2°56.019 19.7556 -999 -999 -999
2011-08-01 06:25:21 51°13.636 2°56.019 19.7575 -999 -999 -999
2011-08-01 06:25:26 51°13.636 2°56.019 19.7578 -999 -999 -999
2011-08-01 06:25:31 51°13.636 2°56.019 19.7589 -999 -999 -999
2011-08-01 06:25:36 51°13.636 2°56.019 19.7574 -999 -999 -999
2011-08-01 06:25:41 51°13.636 2°56.019 19.7583 -999 -999 -999
2011-08-01 06:25:46 51°13.636 2°56.019 19.7595 -999 -999 -999
2011-08-01 06:25:51 51°13.636 2°56.019 19.7591 -999 -999 -999
2011-08-01 06:25:56 51°13.636 2°56.019 19.7583 -999 -999 -999
2011-08-01 06:26:00 51°13.636 2°56.019 19.7585 -999 -999 -999
2011-08-01 06:26:05 51°13.636 2°56.019 19.7594 -999 -999 -999
2011-08-01 06:26:10 51°13.636 2°56.019 19.7604 -999 -999 -999
2011-08-01 06:26:15 51°13.636 2°56.019 19.7611 -999 -999 -999
2011-08-01 06:26:21 51°13.636 2°56.019 19.7613 -999 -999 -999
2011-08-01 06:26:26 51°13.636 2°56.019 19.7607 -999 -999 -999
2011-08-01 06:26:31 51°13.636 2°56.018 19.762 -999 -999 -999
2011-08-01 06:26:36 51°13.636 2°56.018 19.7633 -999 -999 -999
2011-08-01 06:26:41 51°13.636 2°56.018 19.7649 -999 -999 -999
2011-08-01 06:26:46 51°13.636 2°56.018 19.7651 -999 -999 -999
2011-08-01 06:26:50 51°13.636 2°56.018 19.7661 -999 -999 -999
2011-08-01 06:26:55 51°13.636 2°56.018 19.7661 -999 -999 -999
2011-08-01 06:27:00 51°13.636 2°56.018 19.7657 -999 -999 -999
2011-08-01 06:27:05 51°13.636 2°56.018 19.7645 -999 -999 -999
2011-08-01 06:27:10 51°13.636 2°56.018 19.7639 -999 -999 -999
2011-08-01 06:27:16 51°13.636 2°56.018 19.7639 -999 -999 -999
2011-08-01 06:27:20 51°13.636 2°56.018 19.7643 -999 -999 -999
2011-08-01 06:27:25 51°13.636 2°56.018 19.7653 -999 -999 -999
2011-08-01 06:27:30 51°13.636 2°56.018 19.7664 -999 -999 -999
2011-08-01 06:27:35 51°13.636 2°56.018 19.7667 -999 -999 -999
2011-08-01 06:27:41 51°13.636 2°56.019 19.7678 -999 -999 -999
2011-08-01 06:27:45 51°13.636 2°56.019 19.7671 -999 -999 -999
2011-08-01 06:27:50 51°13.636 2°56.019 19.7692 -999 -999 -999
2011-08-01 06:27:55 51°13.636 2°56.019 19.7694 -999 -999 -999
2011-08-01 06:28:00 51°13.636 2°56.019 19.77 -999 -999 -999
2011-08-01 06:28:05 51°13.636 2°56.019 19.7714 -999 -999 -999
2011-08-01 06:28:10 51°13.636 2°56.019 19.7717 -999 -999 -999
2011-08-01 06:28:15 51°13.637 2°56.019 19.7718 -999 -999 -999
2011-08-01 06:28:20 51°13.637 2°56.019 19.7726 -999 -999 -999
2011-08-01 06:28:25 51°13.637 2°56.019 19.7704 -999 -999 -999
2011-08-01 06:28:30 51°13.637 2°56.019 19.7633 -999 -999 -999
2011-08-01 06:28:35 51°13.637 2°56.019 19.7651 -999 -999 -999
2011-08-01 06:28:40 51°13.637 2°56.019 19.7715 -999 -999 -999
2011-08-01 06:28:45 51°13.637 2°56.019 19.7737 -999 -999 -999
2011-08-01 06:28:50 51°13.637 2°56.019 19.7744 -999 -999 -999
2011-08-01 06:28:55 51°13.637 2°56.019 19.7747 -999 -999 -999
2011-08-01 06:29:00 51°13.637 2°56.019 19.7743 -999 -999 -999
2011-08-01 06:29:06 51°13.637 2°56.019 19.7757 -999 -999 -999
2011-08-01 06:29:11 51°13.637 2°56.019 19.7769 -999 -999 -999
2011-08-01 06:29:15 51°13.637 2°56.019 19.7768 -999 -999 -999
2011-08-01 06:29:20 51°13.637 2°56.019 19.7779 -999 -999 -999
2011-08-01 06:29:25 51°13.637 2°56.019 19.7775 -999 -999 -999
2011-08-01 06:29:30 51°13.637 2°56.019 19.7784 -999 -999 -999
2011-08-01 06:29:35 51°13.637 2°56.019 19.7793 -999 -999 -999
2011-08-01 06:29:40 51°13.637 2°56.019 19.7794 -999 -999 -999
2011-08-01 06:29:45 51°13.637 2°56.019 19.7789 -999 -999 -999
2011-08-01 06:29:50 51°13.637 2°56.019 19.7788 -999 -999 -999
2011-08-01 06:29:55 51°13.637 2°56.019 19.7801 -999 -999 -999
2011-08-01 06:30:00 51°13.637 2°56.019 19.7802 -999 -999 -999
2011-08-01 06:30:05 51°13.637 2°56.018 19.7798 -999 -999 -999
2011-08-01 06:30:10 51°13.637 2°56.018 19.7802 -999 -999 -999
2011-08-01 06:30:15 51°13.637 2°56.018 19.781 -999 -999 -999
2011-08-01 06:30:20 51°13.637 2°56.018 19.7819 -999 -999 -999
2011-08-01 06:30:25 51°13.637 2°56.018 19.782 -999 -999 -999
2011-08-01 06:30:31 51°13.637 2°56.018 19.7829 -999 -999 -999
2011-08-01 06:30:36 51°13.637 2°56.018 19.7823 -999 -999 -999
2011-08-01 06:30:41 51°13.637 2°56.018 19.7816 -999 -999 -999
2011-08-01 06:30:46 51°13.637 2°56.018 19.7827 -999 -999 -999
2011-08-01 06:30:51 51°13.637 2°56.018 19.7825 -999 -999 -999
2011-08-01 06:30:56 51°13.637 2°56.018 19.7823 -999 -999 -999
2011-08-01 06:31:00 51°13.637 2°56.018 19.7817 -999 -999 -999
2011-08-01 06:31:05 51°13.637 2°56.018 19.7817 -999 -999 -999
2011-08-01 06:31:10 51°13.637 2°56.018 19.7827 -999 -999 -999
2011-08-01 06:31:16 51°13.637 2°56.018 19.7841 -999 -999 -999
2011-08-01 06:31:21 51°13.637 2°56.018 19.7827 -999 -999 -999
2011-08-01 06:31:26 51°13.637 2°56.018 19.7824 -999 -999 -999
2011-08-01 06:31:31 51°13.637 2°56.018 19.7809 -999 -999 -999
2011-08-01 06:31:36 51°13.637 2°56.018 19.7803 -999 -999 -999
2011-08-01 06:31:41 51°13.637 2°56.018 19.7809 -999 -999 -999
2011-08-01 06:31:46 51°13.637 2°56.018 19.7807 -999 -999 -999
2011-08-01 06:31:51 51°13.637 2°56.018 19.7819 -999 -999 -999
2011-08-01 06:31:56 51°13.637 2°56.018 19.7817 -999 -999 -999
2011-08-01 06:32:00 51°13.637 2°56.018 19.781 -999 -999 -999
2011-08-01 06:32:05 51°13.637 2°56.018 19.7808 -999 -999 -999
2011-08-01 06:32:10 51°13.637 2°56.018 19.7801 -999 -999 -999
2011-08-01 06:32:15 51°13.637 2°56.018 19.7817 -999 -999 -999
2011-08-01 06:32:20 51°13.637 2°56.018 19.7816 -999 -999 -999
2011-08-01 06:32:25 51°13.637 2°56.017 19.7842 -999 -999 -999
2011-08-01 06:32:30 51°13.637 2°56.017 19.7834 -999 -999 -999
2011-08-01 06:32:35 51°13.637 2°56.017 19.7849 -999 -999 -999
2011-08-01 06:32:40 51°13.637 2°56.017 19.7863 -999 -999 -999
2011-08-01 06:32:46 51°13.637 2°56.017 19.7878 -999 -999 -999
2011-08-01 06:32:51 51°13.637 2°56.017 19.7889 -999 -999 -999
2011-08-01 06:32:55 51°13.637 2°56.017 19.789 -999 -999 -999
2011-08-01 06:33:01 51°13.637 2°56.018 19.7899 -999 -999 -999
2011-08-01 06:33:06 51°13.637 2°56.018 19.7894 -999 -999 -999
2011-08-01 06:33:10 51°13.637 2°56.018 19.7914 -999 -999 -999
2011-08-01 06:33:15 51°13.636 2°56.018 19.7914 -999 -999 -999
2011-08-01 06:33:20 51°13.636 2°56.018 19.7915 -999 -999 -999
2011-08-01 06:33:25 51°13.636 2°56.018 19.7913 -999 -999 -999
2011-08-01 06:33:30 51°13.636 2°56.018 19.7913 -999 -999 -999
2011-08-01 06:33:35 51°13.636 2°56.018 19.7906 -999 -999 -999
2011-08-01 06:33:40 51°13.636 2°56.018 19.7896 -999 -999 -999
2011-08-01 06:33:45 51°13.636 2°56.018 19.7891 -999 -999 -999
2011-08-01 06:33:50 51°13.636 2°56.018 19.7878 -999 -999 -999
2011-08-01 06:33:55 51°13.636 2°56.018 19.7899 -999 -999 -999
2011-08-01 06:34:01 51°13.636 2°56.018 19.7899 -999 -999 -999
2011-08-01 06:34:06 51°13.636 2°56.018 19.7905 -999 -999 -999
2011-08-01 06:34:11 51°13.637 2°56.018 19.7913 -999 -999 -999
2011-08-01 06:34:15 51°13.637 2°56.018 19.7908 -999 -999 -999
2011-08-01 06:34:21 51°13.637 2°56.018 19.7907 -999 -999 -999
2011-08-01 06:34:25 51°13.637 2°56.018 19.7915 -999 -999 -999
2011-08-01 06:34:30 51°13.637 2°56.018 19.7908 -999 -999 -999
2011-08-01 06:34:34 51°13.637 2°56.018 19.7925 -999 -999 -999
2011-08-01 06:34:40 51°13.637 2°56.018 19.7928 -999 -999 -999
2011-08-01 06:34:45 51°13.637 2°56.018 19.7928 -999 -999 -999
2011-08-01 06:34:49 51°13.637 2°56.018 19.7939 -999 -999 -999
2011-08-01 06:34:54 51°13.637 2°56.018 19.7939 -999 -999 -999
2011-08-01 06:34:59 51°13.637 2°56.018 19.795 -999 -999 -999
2011-08-01 06:35:04 51°13.637 2°56.018 19.7961 -999 -999 -999
2011-08-01 06:35:09 51°13.637 2°56.018 19.7949 -999 -999 -999
2011-08-01 06:35:14 51°13.637 2°56.018 19.7966 -999 -999 -999
2011-08-01 06:35:18 51°13.637 2°56.018 19.7964 -999 -999 -999
2011-08-01 06:35:23 51°13.637 2°56.018 19.7968 -999 -999 -999
2011-08-01 06:35:28 51°13.637 2°56.018 19.7982 -999 -999 -999
2011-08-01 06:35:33 51°13.637 2°56.018 19.7981 -999 -999 -999
2011-08-01 06:35:38 51°13.637 2°56.018 19.7989 -999 -999 -999
2011-08-01 06:35:43 51°13.637 2°56.017 19.799 -999 -999 -999
2011-08-01 06:35:48 51°13.637 2°56.017 19.8002 -999 -999 -999
2011-08-01 06:35:53 51°13.637 2°56.017 19.7978 -999 -999 -999
2011-08-01 06:35:58 51°13.637 2°56.017 19.7993 -999 -999 -999
2011-08-01 06:36:03 51°13.637 2°56.017 19.7996 -999 -999 -999
2011-08-01 06:36:07 51°13.637 2°56.017 19.8006 -999 -999 -999
2011-08-01 06:36:13 51°13.637 2°56.017 19.8012 -999 -999 -999
2011-08-01 06:36:18 51°13.637 2°56.017 19.8031 -999 -999 -999
2011-08-01 06:36:23 51°13.637 2°56.017 19.8038 -999 -999 -999
2011-08-01 06:36:27 51°13.637 2°56.017 19.8043 -999 -999 -999
2011-08-01 06:36:32 51°13.637 2°56.017 19.8053 -999 -999 -999
2011-08-01 06:36:37 51°13.637 2°56.017 19.8049 -999 -999 -999
2011-08-01 06:36:42 51°13.637 2°56.017 19.8051 -999 -999 -999
2011-08-01 06:36:47 51°13.637 2°56.017 19.8059 -999 -999 -999
2011-08-01 06:36:52 51°13.637 2°56.017 19.8063 -999 -999 -999
2011-08-01 06:36:56 51°13.637 2°56.017 19.8055 -999 -999 -999
2011-08-01 06:37:03 51°13.637 2°56.017 19.8064 -999 -999 -999
2011-08-01 06:37:08 51°13.637 2°56.017 19.807 -999 -999 -999
2011-08-01 06:37:12 51°13.637 2°56.017 19.8073 -999 -999 -999
2011-08-01 06:37:17 51°13.637 2°56.017 19.8074 -999 -999 -999
2011-08-01 06:37:22 51°13.637 2°56.017 19.8085 -999 -999 -999
2011-08-01 06:37:27 51°13.637 2°56.017 19.8078 -999 -999 -999
2011-08-01 06:37:32 51°13.637 2°56.017 19.8088 -999 -999 -999
2011-08-01 06:37:37 51°13.637 2°56.017 19.81 -999 -999 -999
2011-08-01 06:37:42 51°13.637 2°56.017 19.8111 -999 -999 -999
2011-08-01 06:37:47 51°13.637 2°56.017 19.8103 -999 -999 -999
2011-08-01 06:37:52 51°13.637 2°56.017 19.8109 -999 -999 -999
2011-08-01 06:37:57 51°13.637 2°56.017 19.8118 -999 -999 -999
2011-08-01 06:38:02 51°13.637 2°56.017 19.8124 -999 -999 -999
2011-08-01 06:38:07 51°13.637 2°56.017 19.8134 -999 -999 -999
2011-08-01 06:38:12 51°13.637 2°56.017 19.8148 -999 -999 -999
2011-08-01 06:38:17 51°13.637 2°56.017 19.8151 -999 -999 -999
2011-08-01 06:38:22 51°13.637 2°56.017 19.8143 -999 -999 -999
2011-08-01 06:38:27 51°13.637 2°56.017 19.8148 -999 -999 -999
2011-08-01 06:38:32 51°13.638 2°56.017 19.8159 -999 -999 -999
2011-08-01 06:38:37 51°13.637 2°56.017 19.8163 -999 -999 -999
2011-08-01 06:38:42 51°13.637 2°56.017 19.8183 -999 -999 -999
2011-08-01 06:38:47 51°13.637 2°56.017 19.8178 -999 -999 -999
2011-08-01 06:38:52 51°13.637 2°56.017 19.82 -999 -999 -999
2011-08-01 06:38:56 51°13.637 2°56.017 19.8201 -999 -999 -999
2011-08-01 06:39:02 51°13.637 2°56.017 19.8215 -999 -999 -999
2011-08-01 06:39:08 51°13.637 2°56.017 19.8219 -999 -999 -999
2011-08-01 06:39:13 51°13.638 2°56.017 19.8211 -999 -999 -999
2011-08-01 06:39:17 51°13.638 2°56.017 19.8218 -999 -999 -999
2011-08-01 06:39:22 51°13.638 2°56.017 19.8223 -999 -999 -999
2011-08-01 06:39:27 51°13.637 2°56.017 19.8221 -999 -999 -999
2011-08-01 06:39:32 51°13.637 2°56.017 19.8223 -999 -999 -999
2011-08-01 06:39:37 51°13.637 2°56.017 19.8239 -999 -999 -999
2011-08-01 06:39:42 51°13.637 2°56.017 19.8255 -999 -999 -999
2011-08-01 06:39:47 51°13.637 2°56.017 19.827 -999 -999 -999
2011-08-01 06:39:52 51°13.637 2°56.017 19.8271 -999 -999 -999
2011-08-01 06:39:57 51°13.637 2°56.017 19.827 -999 -999 -999
2011-08-01 06:40:02 51°13.637 2°56.017 19.8286 -999 -999 -999
2011-08-01 06:40:07 51°13.637 2°56.017 19.8303 -999 -999 -999
2011-08-01 06:40:12 51°13.637 2°56.017 19.8304 -999 -999 -999
2011-08-01 06:40:17 51°13.637 2°56.017 19.8316 -999 -999 -999
2011-08-01 06:40:22 51°13.637 2°56.017 19.8325 -999 -999 -999
2011-08-01 06:40:27 51°13.637 2°56.017 19.8316 -999 -999 -999
2011-08-01 06:40:32 51°13.637 2°56.017 19.8312 -999 -999 -999
2011-08-01 06:40:37 51°13.637 2°56.017 19.8326 -999 -999 -999
2011-08-01 06:40:42 51°13.637 2°56.017 19.835 -999 -999 -999
2011-08-01 06:40:47 51°13.638 2°56.017 19.8358 -999 -999 -999
2011-08-01 06:40:52 51°13.638 2°56.017 19.8372 -999 -999 -999
2011-08-01 06:40:57 51°13.638 2°56.017 19.8389 -999 -999 -999
2011-08-01 06:41:02 51°13.638 2°56.017 19.839 -999 -999 -999
2011-08-01 06:41:07 51°13.638 2°56.017 19.8439 -999 -999 -999
2011-08-01 06:41:12 51°13.638 2°56.017 19.8492 -999 -999 -999
2011-08-01 06:41:17 51°13.638 2°56.017 19.8586 -999 -999 -999
2011-08-01 06:41:22 51°13.638 2°56.017 19.8562 -999 -999 -999
2011-08-01 06:41:26 51°13.638 2°56.018 19.8582 -999 -999 -999
2011-08-01 06:41:32 51°13.637 2°56.018 19.8503 -999 -999 -999
2011-08-01 06:41:37 51°13.637 2°56.018 19.8575 -999 -999 -999
2011-08-01 06:41:42 51°13.638 2°56.018 19.8604 -999 -999 -999
2011-08-01 06:41:46 51°13.638 2°56.018 19.8607 -999 -999 -999
2011-08-01 06:41:52 51°13.638 2°56.018 19.8645 -999 -999 -999
2011-08-01 06:41:57 51°13.638 2°56.018 19.8626 -999 -999 -999
2011-08-01 06:42:02 51°13.638 2°56.018 19.8577 -999 -999 -999
2011-08-01 06:42:06 51°13.637 2°56.018 19.8623 -999 -999 -999
2011-08-01 06:42:11 51°13.637 2°56.018 19.8639 -999 -999 -999
2011-08-01 06:42:17 51°13.637 2°56.018 19.8647 -999 -999 -999
2011-08-01 06:42:22 51°13.637 2°56.018 19.8649 -999 -999 -999
2011-08-01 06:42:27 51°13.637 2°56.018 19.867 -999 -999 -999
2011-08-01 06:42:32 51°13.637 2°56.017 19.8675 -999 -999 -999
2011-08-01 06:42:37 51°13.637 2°56.017 19.8677 -999 -999 -999
2011-08-01 06:42:42 51°13.637 2°56.017 19.8691 -999 -999 -999
2011-08-01 06:42:47 51°13.637 2°56.017 19.867 -999 -999 -999
2011-08-01 06:42:52 51°13.637 2°56.017 19.8648 -999 -999 -999
2011-08-01 06:42:57 51°13.637 2°56.017 19.868 -999 -999 -999
2011-08-01 06:43:02 51°13.637 2°56.017 19.8696 -999 -999 -999
2011-08-01 06:43:08 51°13.637 2°56.017 19.8702 -999 -999 -999
2011-08-01 06:43:12 51°13.637 2°56.017 19.8705 -999 -999 -999
2011-08-01 06:43:17 51°13.637 2°56.017 19.8701 -999 -999 -999
2011-08-01 06:43:22 51°13.637 2°56.017 19.8721 -999 -999 -999
2011-08-01 06:43:28 51°13.637 2°56.017 19.8696 -999 -999 -999
2011-08-01 06:43:32 51°13.637 2°56.017 19.8726 -999 -999 -999
2011-08-01 06:43:37 51°13.637 2°56.017 19.8726 -999 -999 -999
2011-08-01 06:43:42 51°13.637 2°56.017 19.8727 -999 -999 -999
2011-08-01 06:43:47 51°13.637 2°56.017 19.8732 -999 -999 -999
2011-08-01 06:43:52 51°13.637 2°56.017 19.8726 -999 -999 -999
2011-08-01 06:43:57 51°13.637 2°56.017 19.8735 -999 -999 -999
2011-08-01 06:44:02 51°13.637 2°56.017 19.8747 -999 -999 -999
2011-08-01 06:44:07 51°13.637 2°56.017 19.8766 -999 -999 -999
2011-08-01 06:44:12 51°13.637 2°56.017 19.8775 -999 -999 -999
2011-08-01 06:44:16 51°13.637 2°56.017 19.8778 -999 -999 -999
2011-08-01 06:44:22 51°13.637 2°56.017 19.8784 -999 -999 -999
2011-08-01 06:44:27 51°13.636 2°56.017 19.8778 -999 -999 -999
2011-08-01 06:44:32 51°13.636 2°56.017 19.8785 -999 -999 -999
2011-08-01 06:44:36 51°13.636 2°56.017 19.8794 -999 -999 -999
2011-08-01 06:44:42 51°13.636 2°56.017 19.8802 -999 -999 -999
2011-08-01 06:44:47 51°13.636 2°56.017 19.8811 -999 -999 -999
2011-08-01 06:44:52 51°13.636 2°56.017 19.8817 -999 -999 -999
2011-08-01 06:44:57 51°13.637 2°56.017 19.8818 -999 -999 -999
2011-08-01 06:45:02 51°13.637 2°56.017 19.8824 -999 -999 -999
2011-08-01 06:45:07 51°13.637 2°56.017 19.8827 -999 -999 -999
2011-08-01 06:45:13 51°13.637 2°56.017 19.8822 -999 -999 -999
2011-08-01 06:45:17 51°13.637 2°56.017 19.8834 -999 -999 -999
2011-08-01 06:45:22 51°13.637 2°56.017 19.8846 -999 -999 -999
2011-08-01 06:45:27 51°13.637 2°56.017 19.8854 -999 -999 -999
2011-08-01 06:45:32 51°13.637 2°56.017 19.886 -999 -999 -999
2011-08-01 06:45:37 51°13.637 2°56.017 19.8869 -999 -999 -999
2011-08-01 06:45:42 51°13.637 2°56.017 19.887 -999 -999 -999
2011-08-01 06:45:47 51°13.637 2°56.017 19.8874 -999 -999 -999
2011-08-01 06:45:53 51°13.637 2°56.017 19.8878 -999 -999 -999
2011-08-01 06:45:57 51°13.637 2°56.017 19.8874 -999 -999 -999
2011-08-01 06:46:02 51°13.637 2°56.017 19.8878 -999 -999 -999
2011-08-01 06:46:07 51°13.637 2°56.017 19.8883 -999 -999 -999
2011-08-01 06:46:12 51°13.637 2°56.017 19.8885 -999 -999 -999
2011-08-01 06:46:17 51°13.637 2°56.017 19.8891 -999 -999 -999
2011-08-01 06:46:22 51°13.637 2°56.017 19.8893 -999 -999 -999
2011-08-01 06:46:27 51°13.637 2°56.017 19.8899 -999 -999 -999
2011-08-01 06:46:32 51°13.637 2°56.017 19.8896 -999 -999 -999
2011-08-01 06:46:37 51°13.637 2°56.017 19.8893 -999 -999 -999
2011-08-01 06:46:42 51°13.637 2°56.017 19.8898 -999 -999 -999
2011-08-01 06:46:47 51°13.637 2°56.017 19.8899 -999 -999 -999
2011-08-01 06:46:52 51°13.637 2°56.018 19.8908 -999 -999 -999
2011-08-01 06:46:57 51°13.637 2°56.018 19.8885 -999 -999 -999
2011-08-01 06:47:02 51°13.637 2°56.018 19.8841 -999 -999 -999
2011-08-01 06:47:07 51°13.637 2°56.018 19.8867 -999 -999 -999
2011-08-01 06:47:12 51°13.637 2°56.018 19.8902 -999 -999 -999
2011-08-01 06:47:17 51°13.637 2°56.018 19.8921 -999 -999 -999
2011-08-01 06:47:22 51°13.637 2°56.018 19.8945 -999 -999 -999
2011-08-01 06:47:26 51°13.637 2°56.018 19.8953 -999 -999 -999
2011-08-01 06:47:32 51°13.637 2°56.018 19.8969 -999 -999 -999
2011-08-01 06:47:37 51°13.637 2°56.018 19.8932 -999 -999 -999
2011-08-01 06:47:42 51°13.637 2°56.018 19.8885 -999 -999 -999
2011-08-01 06:47:47 51°13.637 2°56.018 19.8908 -999 -999 -999
2011-08-01 06:47:51 51°13.637 2°56.018 19.8927 -999 -999 -999
2011-08-01 06:47:57 51°13.637 2°56.018 19.8943 -999 -999 -999
2011-08-01 06:48:02 51°13.637 2°56.018 19.895 -999 -999 -999
2011-08-01 06:48:07 51°13.637 2°56.018 19.8985 -999 -999 -999
2011-08-01 06:48:12 51°13.637 2°56.018 19.8999 -999 -999 -999
2011-08-01 06:48:17 51°13.637 2°56.018 19.9014 -999 -999 -999
2011-08-01 06:48:22 51°13.637 2°56.018 19.9019 -999 -999 -999
2011-08-01 06:48:27 51°13.637 2°56.018 19.903 -999 -999 -999
2011-08-01 06:48:32 51°13.637 2°56.018 19.9045 -999 -999 -999
2011-08-01 06:48:37 51°13.637 2°56.018 19.9045 -999 -999 -999
2011-08-01 06:48:42 51°13.637 2°56.018 19.9032 -999 -999 -999
2011-08-01 06:48:47 51°13.637 2°56.018 19.9041 -999 -999 -999
2011-08-01 06:48:52 51°13.637 2°56.018 19.9049 -999 -999 -999
2011-08-01 06:48:56 51°13.637 2°56.018 19.9045 -999 -999 -999
2011-08-01 06:49:02 51°13.637 2°56.018 19.9056 -999 -999 -999
2011-08-01 06:49:07 51°13.637 2°56.018 19.905 -999 -999 -999
2011-08-01 06:49:12 51°13.637 2°56.018 19.907 -999 -999 -999
2011-08-01 06:49:17 51°13.637 2°56.018 19.9091 -999 -999 -999
2011-08-01 06:49:22 51°13.637 2°56.018 19.9118 -999 -999 -999
2011-08-01 06:49:28 51°13.637 2°56.018 19.9127 -999 -999 -999
2011-08-01 06:49:32 51°13.637 2°56.019 19.9143 -999 -999 -999
2011-08-01 06:49:37 51°13.637 2°56.019 19.9145 -999 -999 -999
2011-08-01 06:49:42 51°13.637 2°56.019 19.916 -999 -999 -999
2011-08-01 06:49:47 51°13.637 2°56.019 19.9178 -999 -999 -999
2011-08-01 06:49:52 51°13.637 2°56.019 19.9184 -999 -999 -999
2011-08-01 06:49:57 51°13.637 2°56.019 19.9196 -999 -999 -999
2011-08-01 06:50:02 51°13.637 2°56.019 19.9201 -999 -999 -999
2011-08-01 06:50:07 51°13.637 2°56.019 19.92 -999 -999 -999
2011-08-01 06:50:12 51°13.637 2°56.019 19.9205 -999 -999 -999
2011-08-01 06:50:17 51°13.637 2°56.019 19.9204 -999 -999 -999
2011-08-01 06:50:22 51°13.637 2°56.019 19.921 -999 -999 -999
2011-08-01 06:50:27 51°13.637 2°56.019 19.9213 -999 -999 -999
2011-08-01 06:50:32 51°13.637 2°56.019 19.9226 -999 -999 -999
2011-08-01 06:50:36 51°13.637 2°56.019 19.9229 -999 -999 -999
2011-08-01 06:50:42 51°13.637 2°56.019 19.9238 -999 -999 -999
2011-08-01 06:50:47 51°13.637 2°56.019 19.9235 -999 -999 -999
2011-08-01 06:50:52 51°13.637 2°56.019 19.9239 -999 -999 -999
2011-08-01 06:50:56 51°13.637 2°56.018 19.9236 -999 -999 -999
2011-08-01 06:51:02 51°13.637 2°56.018 19.9247 -999 -999 -999
2011-08-01 06:51:07 51°13.637 2°56.018 19.9245 -999 -999 -999
2011-08-01 06:51:12 51°13.637 2°56.018 19.9256 -999 -999 -999
2011-08-01 06:51:16 51°13.637 2°56.018 19.9252 -999 -999 -999
2011-08-01 06:51:22 51°13.637 2°56.018 19.926 -999 -999 -999
2011-08-01 06:51:27 51°13.637 2°56.018 19.9276 -999 -999 -999
2011-08-01 06:51:32 51°13.637 2°56.018 19.9275 -999 -999 -999
2011-08-01 06:51:36 51°13.637 2°56.018 19.9298 -999 -999 -999
2011-08-01 06:51:42 51°13.637 2°56.018 19.9308 -999 -999 -999
2011-08-01 06:51:47 51°13.637 2°56.018 19.9315 -999 -999 -999
2011-08-01 06:51:52 51°13.637 2°56.018 19.9324 -999 -999 -999
2011-08-01 06:51:57 51°13.637 2°56.018 19.9331 -999 -999 -999
2011-08-01 06:52:02 51°13.637 2°56.018 19.9339 -999 -999 -999
2011-08-01 06:52:07 51°13.637 2°56.018 19.9339 -999 -999 -999
2011-08-01 06:52:12 51°13.637 2°56.018 19.9342 -999 -999 -999
2011-08-01 06:52:17 51°13.637 2°56.018 19.936 -999 -999 -999
2011-08-01 06:52:21 51°13.637 2°56.018 19.9371 -999 -999 -999
2011-08-01 06:52:27 51°13.637 2°56.018 19.9382 -999 -999 -999
2011-08-01 06:52:32 51°13.637 2°56.018 19.9382 -999 -999 -999
2011-08-01 06:52:37 51°13.637 2°56.018 19.9389 -999 -999 -999
2011-08-01 06:52:42 51°13.637 2°56.018 19.9388 -999 -999 -999
2011-08-01 06:52:47 51°13.637 2°56.018 19.9385 -999 -999 -999
2011-08-01 06:52:52 51°13.637 2°56.018 19.9402 -999 -999 -999
2011-08-01 06:52:57 51°13.637 2°56.018 19.9408 -999 -999 -999
2011-08-01 06:53:02 51°13.637 2°56.018 19.9415 -999 -999 -999
2011-08-01 06:53:07 51°13.637 2°56.018 19.9414 -999 -999 -999
2011-08-01 06:53:12 51°13.637 2°56.018 19.9416 -999 -999 -999
2011-08-01 06:53:17 51°13.637 2°56.018 19.9421 -999 -999 -999
2011-08-01 06:53:21 51°13.637 2°56.018 19.9424 -999 -999 -999
2011-08-01 06:53:27 51°13.637 2°56.018 19.9432 -999 -999 -999
2011-08-01 06:53:33 51°13.637 2°56.018 19.9435 -999 -999 -999
2011-08-01 06:53:38 51°13.637 2°56.018 19.9438 -999 -999 -999
2011-08-01 06:53:42 51°13.637 2°56.018 19.945 -999 -999 -999
2011-08-01 06:53:47 51°13.637 2°56.018 19.9464 -999 -999 -999
2011-08-01 06:53:52 51°13.637 2°56.018 19.9466 -999 -999 -999
2011-08-01 06:53:57 51°13.637 2°56.018 19.9483 -999 -999 -999
2011-08-01 06:54:02 51°13.637 2°56.018 19.9487 -999 -999 -999
2011-08-01 06:54:07 51°13.637 2°56.018 19.949 -999 -999 -999
2011-08-01 06:54:12 51°13.637 2°56.018 19.9499 -999 -999 -999
2011-08-01 06:54:17 51°13.637 2°56.018 19.9507 -999 -999 -999
2011-08-01 06:54:22 51°13.637 2°56.018 19.9507 -999 -999 -999
2011-08-01 06:54:26 51°13.637 2°56.018 19.9514 -999 -999 -999
2011-08-01 06:54:32 51°13.637 2°56.018 19.9527 -999 -999 -999
2011-08-01 06:54:37 51°13.637 2°56.018 19.9525 -999 -999 -999
2011-08-01 06:54:42 51°13.637 2°56.018 19.9542 -999 -999 -999
2011-08-01 06:54:46 51°13.637 2°56.018 19.9556 -999 -999 -999
2011-08-01 06:54:52 51°13.637 2°56.018 19.9565 -999 -999 -999
2011-08-01 06:54:57 51°13.637 2°56.018 19.9579 -999 -999 -999
2011-08-01 06:55:02 51°13.637 2°56.018 19.9583 -999 -999 -999
2011-08-01 06:55:07 51°13.637 2°56.017 19.9587 -999 -999 -999
2011-08-01 06:55:11 51°13.637 2°56.017 19.9601 -999 -999 -999
2011-08-01 06:55:17 51°13.637 2°56.017 19.9606 -999 -999 -999
2011-08-01 06:55:22 51°13.636 2°56.017 19.9604 -999 -999 -999
2011-08-01 06:55:27 51°13.636 2°56.017 19.9608 -999 -999 -999
2011-08-01 06:55:31 51°13.636 2°56.017 19.9618 -999 -999 -999
2011-08-01 06:55:37 51°13.636 2°56.017 19.9631 -999 -999 -999
2011-08-01 06:55:43 51°13.636 2°56.017 19.9642 -999 -999 -999
2011-08-01 06:55:47 51°13.636 2°56.017 19.9652 -999 -999 -999
2011-08-01 06:55:52 51°13.636 2°56.017 19.9659 -999 -999 -999
2011-08-01 06:55:57 51°13.636 2°56.017 19.9673 -999 -999 -999
2011-08-01 06:56:02 51°13.636 2°56.017 19.9674 -999 -999 -999
2011-08-01 06:56:07 51°13.636 2°56.016 19.9664 -999 -999 -999
2011-08-01 06:56:12 51°13.636 2°56.016 19.9669 -999 -999 -999
2011-08-01 06:56:16 51°13.636 2°56.016 19.9672 -999 -999 -999
2011-08-01 06:56:22 51°13.636 2°56.016 19.9691 -999 -999 -999
2011-08-01 06:56:27 51°13.636 2°56.016 19.9688 -999 -999 -999
2011-08-01 06:56:32 51°13.636 2°56.016 19.9695 -999 -999 -999
2011-08-01 06:56:37 51°13.636 2°56.016 19.97 -999 -999 -999
2011-08-01 06:56:42 51°13.636 2°56.016 19.9719 -999 -999 -999
2011-08-01 06:56:47 51°13.636 2°56.017 19.9712 -999 -999 -999
2011-08-01 06:56:52 51°13.636 2°56.016 19.9722 -999 -999 -999
2011-08-01 06:56:57 51°13.636 2°56.016 19.9723 -999 -999 -999
2011-08-01 06:57:02 51°13.636 2°56.016 19.9733 -999 -999 -999
2011-08-01 06:57:07 51°13.636 2°56.016 19.9734 -999 -999 -999
2011-08-01 06:57:12 51°13.636 2°56.016 19.9738 -999 -999 -999
2011-08-01 06:57:17 51°13.636 2°56.016 19.9752 -999 -999 -999
2011-08-01 06:57:22 51°13.636 2°56.016 19.9764 -999 -999 -999
2011-08-01 06:57:27 51°13.636 2°56.016 19.9773 -999 -999 -999
2011-08-01 06:57:32 51°13.636 2°56.016 19.9785 -999 -999 -999
2011-08-01 06:57:36 51°13.637 2°56.016 19.9797 -999 -999 -999
2011-08-01 06:57:42 51°13.637 2°56.016 19.98 -999 -999 -999
2011-08-01 06:57:47 51°13.637 2°56.016 19.9817 -999 -999 -999
2011-08-01 06:57:52 51°13.637 2°56.016 19.9813 -999 -999 -999
2011-08-01 06:57:56 51°13.637 2°56.016 19.983 -999 -999 -999
2011-08-01 06:58:02 51°13.637 2°56.016 19.9846 -999 -999 -999
2011-08-01 06:58:07 51°13.637 2°56.016 19.9859 -999 -999 -999
2011-08-01 06:58:12 51°13.637 2°56.016 19.9868 -999 -999 -999
2011-08-01 06:58:16 51°13.637 2°56.016 19.988 -999 -999 -999
2011-08-01 06:58:21 51°13.637 2°56.016 19.99 -999 -999 -999
2011-08-01 06:58:26 51°13.637 2°56.016 19.9905 -999 -999 -999
2011-08-01 06:58:33 51°13.637 2°56.016 19.9915 -999 -999 -999
2011-08-01 06:58:37 51°13.637 2°56.016 19.9904 -999 -999 -999
2011-08-01 06:58:42 51°13.637 2°56.016 19.9918 -999 -999 -999
2011-08-01 06:58:47 51°13.637 2°56.016 19.993 -999 -999 -999
2011-08-01 06:58:53 51°13.637 2°56.016 19.9924 -999 -999 -999
2011-08-01 06:58:57 51°13.637 2°56.016 19.9905 -999 -999 -999
2011-08-01 06:59:02 51°13.637 2°56.016 19.9905 -999 -999 -999
2011-08-01 06:59:07 51°13.637 2°56.016 19.9928 -999 -999 -999
2011-08-01 06:59:12 51°13.637 2°56.016 19.994 -999 -999 -999
2011-08-01 06:59:17 51°13.637 2°56.016 19.997 -999 -999 -999
2011-08-01 06:59:21 51°13.637 2°56.016 19.9972 -999 -999 -999
2011-08-01 06:59:27 51°13.637 2°56.016 19.9979 -999 -999 -999
2011-08-01 06:59:32 51°13.637 2°56.016 19.9975 -999 -999 -999
2011-08-01 06:59:37 51°13.637 2°56.016 19.9991 -999 -999 -999
2011-08-01 06:59:42 51°13.637 2°56.016 20.0002 -999 -999 -999
2011-08-01 06:59:47 51°13.637 2°56.017 20.0013 -999 -999 -999
2011-08-01 06:59:52 51°13.637 2°56.017 20.0028 -999 -999 -999
2011-08-01 06:59:57 51°13.637 2°56.017 20.0034 -999 -999 -999
2011-08-01 07:00:02 51°13.637 2°56.017 20.005 -999 -999 -999
2011-08-01 07:00:07 51°13.637 2°56.017 20.0049 -999 -999 -999
2011-08-01 07:00:12 51°13.637 2°56.017 20.0064 -999 -999 -999
2011-08-01 07:00:17 51°13.637 2°56.017 20.0068 -999 -999 -999
2011-08-01 07:00:21 51°13.637 2°56.017 20.0079 -999 -999 -999
2011-08-01 07:00:26 51°13.637 2°56.017 20.0078 -999 -999 -999
2011-08-01 07:00:32 51°13.637 2°56.017 20.0061 -999 -999 -999
2011-08-01 07:00:37 51°13.637 2°56.017 20.0074 -999 -999 -999
2011-08-01 07:00:42 51°13.637 2°56.017 20.009 -999 -999 -999
2011-08-01 07:00:47 51°13.637 2°56.017 20.0106 -999 -999 -999
2011-08-01 07:00:52 51°13.637 2°56.017 20.0133 -999 -999 -999
2011-08-01 07:00:57 51°13.637 2°56.017 20.0135 -999 -999 -999
2011-08-01 07:01:02 51°13.637 2°56.017 20.0146 -999 -999 -999
2011-08-01 07:01:07 51°13.637 2°56.017 20.0165 -999 -999 -999
2011-08-01 07:01:12 51°13.637 2°56.017 20.017 -999 -999 -999
2011-08-01 07:01:17 51°13.637 2°56.017 20.0166 -999 -999 -999
2011-08-01 07:01:22 51°13.637 2°56.017 20.0176 -999 -999 -999
2011-08-01 07:01:27 51°13.637 2°56.017 20.0176 -999 -999 -999
2011-08-01 07:01:32 51°13.637 2°56.017 20.0188 -999 -999 -999
2011-08-01 07:01:37 51°13.637 2°56.017 20.0196 -999 -999 -999
2011-08-01 07:01:42 51°13.637 2°56.017 20.0205 -999 -999 -999
2011-08-01 07:01:46 51°13.637 2°56.017 20.0224 -999 -999 -999
2011-08-01 07:01:52 51°13.636 2°56.017 20.0221 -999 -999 -999
2011-08-01 07:01:57 51°13.636 2°56.017 20.0231 -999 -999 -999
2011-08-01 07:02:02 51°13.636 2°56.017 20.0232 -999 -999 -999
2011-08-01 07:02:06 51°13.636 2°56.017 20.024 -999 -999 -999
2011-08-01 07:02:12 51°13.637 2°56.017 20.0247 -999 -999 -999
2011-08-01 07:02:17 51°13.637 2°56.017 20.0249 -999 -999 -999
2011-08-01 07:02:22 51°13.637 2°56.017 20.0254 -999 -999 -999
2011-08-01 07:02:26 51°13.637 2°56.017 20.0259 -999 -999 -999
2011-08-01 07:02:33 51°13.637 2°56.017 20.0253 -999 -999 -999
2011-08-01 07:02:38 51°13.637 2°56.018 20.0265 -999 -999 -999
2011-08-01 07:02:42 51°13.637 2°56.018 20.027 -999 -999 -999
2011-08-01 07:02:47 51°13.637 2°56.018 20.0269 -999 -999 -999
2011-08-01 07:02:52 51°13.637 2°56.018 20.0287 -999 -999 -999
2011-08-01 07:02:57 51°13.637 2°56.018 20.0282 -999 -999 -999
2011-08-01 07:03:02 51°13.637 2°56.018 20.0291 -999 -999 -999
2011-08-01 07:03:07 51°13.637 2°56.018 20.0304 -999 -999 -999
2011-08-01 07:03:11 51°13.637 2°56.018 20.03 -999 -999 -999
2011-08-01 07:03:17 51°13.637 2°56.018 20.0314 -999 -999 -999
2011-08-01 07:03:22 51°13.637 2°56.018 20.0331 -999 -999 -999
2011-08-01 07:03:27 51°13.637 2°56.018 20.0337 -999 -999 -999
2011-08-01 07:03:32 51°13.637 2°56.018 20.035 -999 -999 -999
2011-08-01 07:03:36 51°13.637 2°56.018 20.036 -999 -999 -999
2011-08-01 07:03:42 51°13.637 2°56.018 20.0367 -999 -999 -999
2011-08-01 07:03:47 51°13.637 2°56.018 20.037 -999 -999 -999
2011-08-01 07:03:52 51°13.637 2°56.018 20.0371 -999 -999 -999
2011-08-01 07:03:56 51°13.637 2°56.018 20.037 -999 -999 -999
2011-08-01 07:04:02 51°13.637 2°56.018 20.0344 -999 -999 -999
2011-08-01 07:04:07 51°13.637 2°56.018 20.0359 -999 -999 -999
2011-08-01 07:04:12 51°13.637 2°56.018 20.0364 -999 -999 -999
2011-08-01 07:04:17 51°13.637 2°56.017 20.0385 -999 -999 -999
2011-08-01 07:04:22 51°13.638 2°56.017 20.0396 -999 -999 -999
2011-08-01 07:04:27 51°13.638 2°56.017 20.0404 -999 -999 -999
2011-08-01 07:04:32 51°13.638 2°56.017 20.0414 -999 -999 -999
2011-08-01 07:04:37 51°13.638 2°56.017 20.0421 -999 -999 -999
2011-08-01 07:04:41 51°13.638 2°56.017 20.0431 -999 -999 -999
2011-08-01 07:04:47 51°13.638 2°56.017 20.0446 -999 -999 -999
2011-08-01 07:04:52 51°13.638 2°56.017 20.0461 -999 -999 -999
2011-08-01 07:04:58 51°13.638 2°56.017 20.0466 -999 -999 -999
2011-08-01 07:05:02 51°13.638 2°56.017 20.0464 -999 -999 -999
2011-08-01 07:05:07 51°13.638 2°56.017 20.0482 -999 -999 -999
2011-08-01 07:05:12 51°13.638 2°56.017 20.0498 -999 -999 -999
2011-08-01 07:05:17 51°13.638 2°56.017 20.0492 -999 -999 -999
2011-08-01 07:05:22 51°13.638 2°56.018 20.0496 -999 -999 -999
2011-08-01 07:05:27 51°13.638 2°56.018 20.0523 -999 -999 -999
2011-08-01 07:05:32 51°13.638 2°56.018 20.0468 -999 -999 -999
2011-08-01 07:05:37 51°13.638 2°56.018 20.0516 -999 -999 -999
2011-08-01 07:05:42 51°13.638 2°56.017 20.0599 -999 -999 -999
2011-08-01 07:05:47 51°13.638 2°56.017 20.0585 -999 -999 -999
2011-08-01 07:05:52 51°13.638 2°56.017 20.0637 -999 -999 -999
2011-08-01 07:05:58 51°13.638 2°56.017 20.0654 -999 -999 -999
2011-08-01 07:06:02 51°13.638 2°56.017 20.0638 -999 -999 -999
2011-08-01 07:06:07 51°13.638 2°56.017 20.0699 -999 -999 -999
2011-08-01 07:06:12 51°13.638 2°56.017 20.07 -999 -999 -999
2011-08-01 07:06:17 51°13.638 2°56.017 20.071 -999 -999 -999
2011-08-01 07:06:22 51°13.638 2°56.017 20.0713 -999 -999 -999
2011-08-01 07:06:27 51°13.638 2°56.017 20.0707 -999 -999 -999
2011-08-01 07:06:32 51°13.638 2°56.017 20.071 -999 -999 -999
2011-08-01 07:06:37 51°13.638 2°56.018 20.0719 -999 -999 -999
2011-08-01 07:06:42 51°13.638 2°56.017 20.0723 -999 -999 -999
2011-08-01 07:06:46 51°13.638 2°56.017 20.0719 -999 -999 -999
2011-08-01 07:06:52 51°13.638 2°56.017 20.0732 -999 -999 -999
2011-08-01 07:06:57 51°13.638 2°56.017 20.0728 -999 -999 -999
2011-08-01 07:07:02 51°13.638 2°56.017 20.0732 -999 -999 -999
2011-08-01 07:07:07 51°13.638 2°56.017 20.0741 -999 -999 -999
2011-08-01 07:07:12 51°13.638 2°56.017 20.0742 -999 -999 -999
2011-08-01 07:07:17 51°13.638 2°56.017 20.075 -999 -999 -999
2011-08-01 07:07:22 51°13.637 2°56.017 20.0755 -999 -999 -999
2011-08-01 07:07:27 51°13.637 2°56.017 20.0739 -999 -999 -999
2011-08-01 07:07:32 51°13.637 2°56.017 20.0749 -999 -999 -999
2011-08-01 07:07:37 51°13.637 2°56.017 20.0766 -999 -999 -999
2011-08-01 07:07:42 51°13.637 2°56.017 20.0771 -999 -999 -999
2011-08-01 07:07:46 51°13.637 2°56.017 20.078 -999 -999 -999
2011-08-01 07:07:52 51°13.637 2°56.017 20.0787 -999 -999 -999
2011-08-01 07:07:57 51°13.637 2°56.017 20.0782 -999 -999 -999
2011-08-01 07:08:02 51°13.637 2°56.017 20.0778 -999 -999 -999
2011-08-01 07:08:06 51°13.637 2°56.017 20.0786 -999 -999 -999
2011-08-01 07:08:12 51°13.637 2°56.017 20.0786 -999 -999 -999
2011-08-01 07:08:17 51°13.637 2°56.017 20.0789 -999 -999 -999
2011-08-01 07:08:22 51°13.637 2°56.017 20.0806 -999 -999 -999
2011-08-01 07:08:26 51°13.637 2°56.017 20.0813 -999 -999 -999
2011-08-01 07:08:32 51°13.637 2°56.017 20.0819 -999 -999 -999
2011-08-01 07:08:37 51°13.637 2°56.017 20.0816 -999 -999 -999
2011-08-01 07:08:42 51°13.637 2°56.017 20.0844 -999 -999 -999
2011-08-01 07:08:47 51°13.637 2°56.017 20.0847 -999 -999 -999
2011-08-01 07:08:52 51°13.637 2°56.017 20.0852 -999 -999 -999
2011-08-01 07:08:57 51°13.637 2°56.017 20.0849 -999 -999 -999
2011-08-01 07:09:02 51°13.637 2°56.017 20.0862 -999 -999 -999
2011-08-01 07:09:06 51°13.637 2°56.018 20.0872 -999 -999 -999
2011-08-01 07:09:12 51°13.637 2°56.018 20.0881 -999 -999 -999
2011-08-01 07:09:17 51°13.637 2°56.018 20.0892 -999 -999 -999
2011-08-01 07:09:22 51°13.637 2°56.018 20.0886 -999 -999 -999
2011-08-01 07:09:27 51°13.637 2°56.018 20.0889 -999 -999 -999
2011-08-01 07:09:32 51°13.637 2°56.018 20.0898 -999 -999 -999
2011-08-01 07:09:37 51°13.637 2°56.018 20.0905 -999 -999 -999
2011-08-01 07:09:42 51°13.637 2°56.018 20.092 -999 -999 -999
2011-08-01 07:09:47 51°13.637 2°56.018 20.0906 -999 -999 -999
2011-08-01 07:09:52 51°13.637 2°56.018 20.092 -999 -999 -999
2011-08-01 07:09:57 51°13.637 2°56.018 20.0913 -999 -999 -999
2011-08-01 07:10:02 51°13.637 2°56.018 20.0935 -999 -999 -999
2011-08-01 07:10:07 51°13.637 2°56.018 20.0931 -999 -999 -999
2011-08-01 07:10:12 51°13.637 2°56.018 20.0947 -999 -999 -999
2011-08-01 07:10:17 51°13.637 2°56.018 20.0952 -999 -999 -999
2011-08-01 07:10:22 51°13.637 2°56.018 20.0968 -999 -999 -999
2011-08-01 07:10:27 51°13.637 2°56.018 20.0982 -999 -999 -999
2011-08-01 07:10:32 51°13.637 2°56.018 20.0993 -999 -999 -999
2011-08-01 07:10:37 51°13.637 2°56.018 20.1 -999 -999 -999
2011-08-01 07:10:43 51°13.637 2°56.018 20.1008 -999 -999 -999
2011-08-01 07:10:47 51°13.637 2°56.018 20.1009 -999 -999 -999
2011-08-01 07:10:52 51°13.637 2°56.018 20.1011 -999 -999 -999
2011-08-01 07:10:57 51°13.637 2°56.018 20.1013 -999 -999 -999
2011-08-01 07:11:03 51°13.637 2°56.018 20.1025 -999 -999 -999
2011-08-01 07:11:07 51°13.637 2°56.018 20.1024 -999 -999 -999
2011-08-01 07:11:12 51°13.637 2°56.018 20.1026 -999 -999 -999
2011-08-01 07:11:17 51°13.637 2°56.018 20.102 -999 -999 -999
2011-08-01 07:11:22 51°13.637 2°56.018 20.1026 -999 -999 -999
2011-08-01 07:11:27 51°13.637 2°56.018 20.1014 -999 -999 -999
2011-08-01 07:11:32 51°13.638 2°56.018 20.1033 -999 -999 -999
2011-08-01 07:11:37 51°13.637 2°56.018 20.104 -999 -999 -999
2011-08-01 07:11:42 51°13.637 2°56.018 20.1064 -999 -999 -999
2011-08-01 07:11:47 51°13.637 2°56.018 20.1075 -999 -999 -999
2011-08-01 07:11:52 51°13.637 2°56.018 20.1084 -999 -999 -999
2011-08-01 07:11:57 51°13.637 2°56.018 20.1103 -999 -999 -999
2011-08-01 07:12:02 51°13.637 2°56.018 20.1121 -999 -999 -999
2011-08-01 07:12:07 51°13.638 2°56.018 20.1131 -999 -999 -999
2011-08-01 07:12:12 51°13.638 2°56.018 20.1136 -999 -999 -999
2011-08-01 07:12:17 51°13.638 2°56.018 20.1147 -999 -999 -999
2011-08-01 07:12:22 51°13.638 2°56.018 20.116 -999 -999 -999
2011-08-01 07:12:27 51°13.638 2°56.018 20.117 -999 -999 -999
2011-08-01 07:12:32 51°13.638 2°56.018 20.1163 -999 -999 -999
2011-08-01 07:12:37 51°13.638 2°56.018 20.1167 -999 -999 -999
2011-08-01 07:12:42 51°13.638 2°56.018 20.1176 -999 -999 -999
2011-08-01 07:12:47 51°13.638 2°56.018 20.1188 -999 -999 -999
2011-08-01 07:12:51 51°13.638 2°56.018 20.1185 -999 -999 -999
2011-08-01 07:12:57 51°13.638 2°56.018 20.1191 -999 -999 -999
2011-08-01 07:13:02 51°13.638 2°56.019 20.121 -999 -999 -999
2011-08-01 07:13:07 51°13.638 2°56.019 20.1219 -999 -999 -999
2011-08-01 07:13:12 51°13.638 2°56.019 20.1226 -999 -999 -999
2011-08-01 07:13:17 51°13.638 2°56.019 20.1227 -999 -999 -999
2011-08-01 07:13:23 51°13.638 2°56.019 20.1226 -999 -999 -999
2011-08-01 07:13:29 51°13.638 2°56.019 20.1244 -999 -999 -999
2011-08-01 07:13:35 51°13.638 2°56.019 20.1254 -999 -999 -999
2011-08-01 07:13:39 51°13.638 2°56.019 20.1265 -999 -999 -999
2011-08-01 07:13:44 51°13.638 2°56.019 20.1266 -999 -999 -999
2011-08-01 07:13:49 51°13.638 2°56.019 20.1283 -999 -999 -999
2011-08-01 07:13:54 51°13.638 2°56.019 20.1306 -999 -999 -999
2011-08-01 07:13:59 51°13.638 2°56.019 20.1294 -999 -999 -999
2011-08-01 07:14:04 51°13.638 2°56.019 20.1299 -999 -999 -999
2011-08-01 07:14:09 51°13.638 2°56.019 20.1303 -999 -999 -999
2011-08-01 07:14:14 51°13.638 2°56.019 20.132 -999 -999 -999
2011-08-01 07:14:19 51°13.638 2°56.019 20.1338 -999 -999 -999
2011-08-01 07:14:23 51°13.638 2°56.019 20.1337 -999 -999 -999
2011-08-01 07:14:28 51°13.638 2°56.019 20.1338 -999 -999 -999
2011-08-01 07:14:33 51°13.638 2°56.019 20.1351 -999 -999 -999
2011-08-01 07:14:38 51°13.638 2°56.019 20.1356 -999 -999 -999
2011-08-01 07:14:43 51°13.638 2°56.019 20.1363 -999 -999 -999
2011-08-01 07:14:47 51°13.638 2°56.019 20.1361 -999 -999 -999
2011-08-01 07:14:52 51°13.638 2°56.019 20.1368 -999 -999 -999
2011-08-01 07:14:57 51°13.638 2°56.019 20.1361 -999 -999 -999
2011-08-01 07:15:02 51°13.638 2°56.019 20.1357 -999 -999 -999
2011-08-01 07:15:07 51°13.638 2°56.019 20.1357 -999 -999 -999
2011-08-01 07:15:12 51°13.638 2°56.019 20.1361 -999 -999 -999
2011-08-01 07:15:17 51°13.638 2°56.019 20.1363 -999 -999 -999
2011-08-01 07:15:22 51°13.638 2°56.019 20.1382 -999 -999 -999
2011-08-01 07:15:27 51°13.638 2°56.019 20.1389 -999 -999 -999
2011-08-01 07:15:32 51°13.638 2°56.019 20.1408 -999 -999 -999
2011-08-01 07:15:37 51°13.638 2°56.019 20.1395 -999 -999 -999
2011-08-01 07:15:42 51°13.638 2°56.019 20.1411 -999 -999 -999
2011-08-01 07:15:47 51°13.638 2°56.019 20.1429 -999 -999 -999
2011-08-01 07:15:52 51°13.638 2°56.019 20.1435 -999 -999 -999
2011-08-01 07:15:57 51°13.638 2°56.019 20.1443 -999 -999 -999
2011-08-01 07:16:02 51°13.638 2°56.019 20.1454 -999 -999 -999
2011-08-01 07:16:07 51°13.638 2°56.019 20.1465 -999 -999 -999
2011-08-01 07:16:12 51°13.638 2°56.019 20.1463 -999 -999 -999
2011-08-01 07:16:17 51°13.638 2°56.019 20.1448 -999 -999 -999
2011-08-01 07:16:22 51°13.638 2°56.019 20.1469 -999 -999 -999
2011-08-01 07:16:27 51°13.638 2°56.019 20.1486 -999 -999 -999
2011-08-01 07:16:32 51°13.638 2°56.019 20.1504 -999 -999 -999
2011-08-01 07:16:37 51°13.637 2°56.019 20.1511 -999 -999 -999
2011-08-01 07:16:42 51°13.637 2°56.019 20.1525 -999 -999 -999
2011-08-01 07:16:47 51°13.637 2°56.019 20.1524 -999 -999 -999
2011-08-01 07:16:52 51°13.637 2°56.019 20.1537 -999 -999 -999
2011-08-01 07:16:57 51°13.637 2°56.019 20.1544 -999 -999 -999
2011-08-01 07:17:02 51°13.637 2°56.019 20.1535 -999 -999 -999
2011-08-01 07:17:07 51°13.637 2°56.019 20.1543 -999 -999 -999
2011-08-01 07:17:12 51°13.637 2°56.019 20.1561 -999 -999 -999
2011-08-01 07:17:17 51°13.637 2°56.019 20.1571 -999 -999 -999
2011-08-01 07:17:22 51°13.637 2°56.019 20.1589 -999 -999 -999
2011-08-01 07:17:27 51°13.637 2°56.019 20.1595 -999 -999 -999
2011-08-01 07:17:32 51°13.637 2°56.019 20.1618 -999 -999 -999
2011-08-01 07:17:37 51°13.637 2°56.019 20.1642 -999 -999 -999
2011-08-01 07:17:42 51°13.637 2°56.019 20.1663 -999 -999 -999
2011-08-01 07:17:47 51°13.637 2°56.019 20.1674 -999 -999 -999
2011-08-01 07:17:52 51°13.637 2°56.019 20.1685 -999 -999 -999
2011-08-01 07:17:57 51°13.637 2°56.019 20.1698 -999 -999 -999
2011-08-01 07:18:02 51°13.637 2°56.019 20.1711 -999 -999 -999
2011-08-01 07:18:07 51°13.637 2°56.019 20.1709 -999 -999 -999
2011-08-01 07:18:12 51°13.637 2°56.019 20.171 -999 -999 -999
2011-08-01 07:18:17 51°13.637 2°56.019 20.1728 -999 -999 -999
2011-08-01 07:18:22 51°13.637 2°56.019 20.1729 -999 -999 -999
2011-08-01 07:18:27 51°13.637 2°56.019 20.1742 -999 -999 -999
2011-08-01 07:18:32 51°13.637 2°56.019 20.1755 -999 -999 -999
2011-08-01 07:18:37 51°13.637 2°56.019 20.1761 -999 -999 -999
2011-08-01 07:18:42 51°13.637 2°56.019 20.1762 -999 -999 -999
2011-08-01 07:18:47 51°13.637 2°56.019 20.1738 -999 -999 -999
2011-08-01 07:18:52 51°13.637 2°56.019 20.1732 -999 -999 -999
2011-08-01 07:18:57 51°13.637 2°56.019 20.1746 -999 -999 -999
2011-08-01 07:19:02 51°13.637 2°56.019 20.1765 -999 -999 -999
2011-08-01 07:19:07 51°13.637 2°56.019 20.1785 -999 -999 -999
2011-08-01 07:19:12 51°13.637 2°56.019 20.1796 -999 -999 -999
2011-08-01 07:19:17 51°13.637 2°56.019 20.1809 -999 -999 -999
2011-08-01 07:19:22 51°13.637 2°56.019 20.1816 -999 -999 -999
2011-08-01 07:19:27 51°13.637 2°56.019 20.1826 -999 -999 -999
2011-08-01 07:19:32 51°13.637 2°56.019 20.1827 -999 -999 -999
2011-08-01 07:19:37 51°13.637 2°56.019 20.185 -999 -999 -999
2011-08-01 07:19:42 51°13.637 2°56.019 20.1863 -999 -999 -999
2011-08-01 07:19:47 51°13.637 2°56.019 20.1861 -999 -999 -999
2011-08-01 07:19:52 51°13.637 2°56.019 20.1867 -999 -999 -999
2011-08-01 07:19:57 51°13.637 2°56.019 20.1873 -999 -999 -999
2011-08-01 07:20:02 51°13.637 2°56.018 20.1887 -999 -999 -999
2011-08-01 07:20:07 51°13.637 2°56.018 20.1888 -999 -999 -999
2011-08-01 07:20:12 51°13.637 2°56.018 20.1907 -999 -999 -999
2011-08-01 07:20:17 51°13.637 2°56.018 20.1913 -999 -999 -999
2011-08-01 07:20:22 51°13.637 2°56.018 20.1917 -999 -999 -999
2011-08-01 07:20:27 51°13.637 2°56.018 20.1906 -999 -999 -999
2011-08-01 07:20:32 51°13.637 2°56.018 20.1916 -999 -999 -999
2011-08-01 07:20:37 51°13.637 2°56.018 20.1933 -999 -999 -999
2011-08-01 07:20:42 51°13.637 2°56.018 20.1954 -999 -999 -999
2011-08-01 07:20:47 51°13.637 2°56.018 20.1975 -999 -999 -999
2011-08-01 07:20:52 51°13.637 2°56.018 20.1965 -999 -999 -999
2011-08-01 07:20:57 51°13.637 2°56.018 20.1979 -999 -999 -999
2011-08-01 07:21:02 51°13.637 2°56.018 20.201 -999 -999 -999
2011-08-01 07:21:07 51°13.637 2°56.018 20.2042 -999 -999 -999
2011-08-01 07:21:12 51°13.637 2°56.018 20.2047 -999 -999 -999
2011-08-01 07:21:17 51°13.637 2°56.018 20.207 -999 -999 -999
2011-08-01 07:21:22 51°13.637 2°56.018 20.2086 -999 -999 -999
2011-08-01 07:21:27 51°13.637 2°56.018 20.2101 -999 -999 -999
2011-08-01 07:21:32 51°13.637 2°56.018 20.2132 -999 -999 -999
2011-08-01 07:21:37 51°13.637 2°56.018 20.2193 -999 -999 -999
2011-08-01 07:21:42 51°13.637 2°56.018 20.223 -999 -999 -999
2011-08-01 07:21:47 51°13.637 2°56.017 20.2259 -999 -999 -999
2011-08-01 07:21:52 51°13.637 2°56.017 20.2266 -999 -999 -999
2011-08-01 07:21:56 51°13.637 2°56.017 20.226 -999 -999 -999
2011-08-01 07:22:02 51°13.637 2°56.017 20.2191 -999 -999 -999
2011-08-01 07:22:07 51°13.637 2°56.017 20.2162 -999 -999 -999
2011-08-01 07:22:12 51°13.637 2°56.017 20.2147 -999 -999 -999
2011-08-01 07:22:17 51°13.637 2°56.017 20.2132 -999 -999 -999
2011-08-01 07:22:22 51°13.637 2°56.017 20.2132 -999 -999 -999
2011-08-01 07:22:27 51°13.637 2°56.017 20.2155 -999 -999 -999
2011-08-01 07:22:32 51°13.637 2°56.017 20.2155 -999 -999 -999
2011-08-01 07:22:37 51°13.637 2°56.017 20.2168 -999 -999 -999
2011-08-01 07:22:42 51°13.637 2°56.017 20.2179 -999 -999 -999
2011-08-01 07:22:47 51°13.637 2°56.017 20.2177 -999 -999 -999
2011-08-01 07:22:52 51°13.637 2°56.017 20.2184 -999 -999 -999
2011-08-01 07:22:57 51°13.637 2°56.017 20.2181 -999 -999 -999
2011-08-01 07:23:02 51°13.637 2°56.017 20.2199 -999 -999 -999
2011-08-01 07:23:07 51°13.637 2°56.017 20.2212 -999 -999 -999
2011-08-01 07:23:12 51°13.637 2°56.017 20.2229 -999 -999 -999
2011-08-01 07:23:17 51°13.637 2°56.017 20.225 -999 -999 -999
2011-08-01 07:23:22 51°13.637 2°56.017 20.2253 -999 -999 -999
2011-08-01 07:23:27 51°13.637 2°56.017 20.226 -999 -999 -999
2011-08-01 07:23:32 51°13.637 2°56.017 20.2268 -999 -999 -999
2011-08-01 07:23:37 51°13.637 2°56.017 20.2276 -999 -999 -999
2011-08-01 07:23:42 51°13.637 2°56.017 20.2276 -999 -999 -999
2011-08-01 07:23:47 51°13.638 2°56.017 20.2298 -999 -999 -999
2011-08-01 07:23:52 51°13.638 2°56.017 20.2303 -999 -999 -999
2011-08-01 07:23:57 51°13.638 2°56.017 20.2315 -999 -999 -999
2011-08-01 07:24:02 51°13.638 2°56.017 20.2314 -999 -999 -999
2011-08-01 07:24:07 51°13.638 2°56.017 20.2321 -999 -999 -999
2011-08-01 07:24:12 51°13.638 2°56.017 20.2336 -999 -999 -999
2011-08-01 07:24:17 51°13.638 2°56.017 20.2332 -999 -999 -999
2011-08-01 07:24:22 51°13.638 2°56.018 20.2349 -999 -999 -999
2011-08-01 07:24:27 51°13.638 2°56.018 20.2352 -999 -999 -999
2011-08-01 07:24:32 51°13.638 2°56.018 20.2338 -999 -999 -999
2011-08-01 07:24:37 51°13.637 2°56.018 20.2364 -999 -999 -999
2011-08-01 07:24:42 51°13.637 2°56.018 20.2372 -999 -999 -999
2011-08-01 07:24:47 51°13.637 2°56.018 20.2387 -999 -999 -999
2011-08-01 07:24:52 51°13.637 2°56.018 20.2404 -999 -999 -999
2011-08-01 07:24:57 51°13.637 2°56.018 20.2409 -999 -999 -999
2011-08-01 07:25:02 51°13.638 2°56.018 20.243 -999 -999 -999
2011-08-01 07:25:07 51°13.638 2°56.018 20.2406 -999 -999 -999
2011-08-01 07:25:12 51°13.638 2°56.018 20.2414 -999 -999 -999
2011-08-01 07:25:17 51°13.638 2°56.018 20.2441 -999 -999 -999
2011-08-01 07:25:22 51°13.638 2°56.018 20.2469 -999 -999 -999
2011-08-01 07:25:27 51°13.638 2°56.018 20.248 -999 -999 -999
2011-08-01 07:25:32 51°13.638 2°56.018 20.2475 -999 -999 -999
2011-08-01 07:25:37 51°13.638 2°56.018 20.2473 -999 -999 -999
2011-08-01 07:25:42 51°13.638 2°56.018 20.2496 -999 -999 -999
2011-08-01 07:25:47 51°13.637 2°56.018 20.2493 -999 -999 -999
2011-08-01 07:25:52 51°13.637 2°56.018 20.2496 -999 -999 -999
2011-08-01 07:25:57 51°13.637 2°56.018 20.249 -999 -999 -999
2011-08-01 07:26:02 51°13.637 2°56.018 20.2497 -999 -999 -999
2011-08-01 07:26:07 51°13.637 2°56.019 20.2511 -999 -999 -999
2011-08-01 07:26:11 51°13.637 2°56.019 20.2526 -999 -999 -999
2011-08-01 07:26:17 51°13.637 2°56.019 20.253 -999 -999 -999
2011-08-01 07:26:22 51°13.637 2°56.019 20.2518 -999 -999 -999
2011-08-01 07:26:27 51°13.637 2°56.019 20.2512 -999 -999 -999
2011-08-01 07:26:31 51°13.637 2°56.019 20.2521 -999 -999 -999
2011-08-01 07:26:37 51°13.637 2°56.019 20.2532 -999 -999 -999
2011-08-01 07:26:42 51°13.637 2°56.019 20.2551 -999 -999 -999
2011-08-01 07:26:47 51°13.637 2°56.019 20.256 -999 -999 -999
2011-08-01 07:26:52 51°13.637 2°56.019 20.2569 -999 -999 -999
2011-08-01 07:26:57 51°13.637 2°56.019 20.2577 -999 -999 -999
2011-08-01 07:27:02 51°13.637 2°56.019 20.257 -999 -999 -999
2011-08-01 07:27:07 51°13.637 2°56.019 20.2562 -999 -999 -999
2011-08-01 07:27:12 51°13.637 2°56.019 20.2578 -999 -999 -999
2011-08-01 07:27:17 51°13.637 2°56.019 20.2589 -999 -999 -999
2011-08-01 07:27:22 51°13.637 2°56.019 20.2613 -999 -999 -999
2011-08-01 07:27:27 51°13.637 2°56.019 20.2616 -999 -999 -999
2011-08-01 07:27:32 51°13.637 2°56.018 20.2632 -999 -999 -999
2011-08-01 07:27:37 51°13.638 2°56.019 20.2647 -999 -999 -999
2011-08-01 07:27:42 51°13.638 2°56.02 20.2662 -999 -999 -999
2011-08-01 07:27:47 51°13.638 2°56.02 20.2678 -999 -999 -999
2011-08-01 07:27:52 51°13.638 2°56.02 20.2696 -999 -999 -999
2011-08-01 07:27:57 51°13.638 2°56.02 20.2708 -999 -999 -999
2011-08-01 07:28:02 51°13.638 2°56.02 20.2731 -999 -999 -999
2011-08-01 07:28:07 51°13.637 2°56.018 20.2748 -999 -999 -999
2011-08-01 07:28:12 51°13.637 2°56.018 20.2767 -999 -999 -999
2011-08-01 07:28:17 51°13.636 2°56.018 20.277 -999 -999 -999
2011-08-01 07:28:22 51°13.637 2°56.018 20.2778 -999 -999 -999
2011-08-01 07:28:27 51°13.636 2°56.018 20.2801 -999 -999 -999
2011-08-01 07:28:32 51°13.636 2°56.018 20.2822 -999 -999 -999
2011-08-01 07:28:37 51°13.636 2°56.018 20.2825 -999 -999 -999
2011-08-01 07:28:42 51°13.636 2°56.018 20.2844 -999 -999 -999
2011-08-01 07:28:47 51°13.636 2°56.018 20.2855 -999 -999 -999
2011-08-01 07:28:52 51°13.636 2°56.018 20.2852 -999 -999 -999
2011-08-01 07:28:57 51°13.636 2°56.018 20.2872 -999 -999 -999
2011-08-01 07:29:02 51°13.636 2°56.018 20.2884 -999 -999 -999
2011-08-01 07:29:07 51°13.636 2°56.018 20.2884 -999 -999 -999
2011-08-01 07:29:12 51°13.636 2°56.018 20.2887 -999 -999 -999
2011-08-01 07:29:16 51°13.636 2°56.018 20.2884 -999 -999 -999
2011-08-01 07:29:22 51°13.636 2°56.018 20.2868 -999 -999 -999
2011-08-01 07:29:27 51°13.636 2°56.018 20.2881 -999 -999 -999
2011-08-01 07:29:32 51°13.636 2°56.018 20.2892 -999 -999 -999
2011-08-01 07:29:37 51°13.636 2°56.018 20.29 -999 -999 -999
2011-08-01 07:29:42 51°13.636 2°56.018 20.29 -999 -999 -999
2011-08-01 07:29:47 51°13.636 2°56.017 20.2919 -999 -999 -999
2011-08-01 07:29:52 51°13.636 2°56.017 20.2932 -999 -999 -999
2011-08-01 07:29:57 51°13.636 2°56.017 20.2917 -999 -999 -999
2011-08-01 07:30:02 51°13.636 2°56.017 20.2925 -999 -999 -999
2011-08-01 07:30:07 51°13.636 2°56.017 20.2935 -999 -999 -999
2011-08-01 07:30:12 51°13.636 2°56.017 20.2927 -999 -999 -999
2011-08-01 07:30:17 51°13.636 2°56.017 20.2939 -999 -999 -999
2011-08-01 07:30:22 51°13.636 2°56.017 20.2942 -999 -999 -999
2011-08-01 07:30:27 51°13.636 2°56.017 20.2958 -999 -999 -999
2011-08-01 07:30:32 51°13.636 2°56.017 20.2982 -999 -999 -999
2011-08-01 07:30:37 51°13.635 2°56.017 20.2989 -999 -999 -999
2011-08-01 07:30:42 51°13.635 2°56.018 20.2997 -999 -999 -999
2011-08-01 07:30:47 51°13.636 2°56.018 20.3 -999 -999 -999
2011-08-01 07:30:52 51°13.636 2°56.018 20.2999 -999 -999 -999
2011-08-01 07:30:56 51°13.636 2°56.018 20.3005 -999 -999 -999
2011-08-01 07:31:02 51°13.636 2°56.018 20.3005 -999 -999 -999
2011-08-01 07:31:07 51°13.635 2°56.018 20.3023 -999 -999 -999
2011-08-01 07:31:12 51°13.635 2°56.018 20.3047 -999 -999 -999
2011-08-01 07:31:17 51°13.635 2°56.018 20.3065 -999 -999 -999
2011-08-01 07:31:22 51°13.635 2°56.018 20.3085 -999 -999 -999
2011-08-01 07:31:27 51°13.635 2°56.018 20.3091 -999 -999 -999
2011-08-01 07:31:32 51°13.635 2°56.018 20.3089 -999 -999 -999
2011-08-01 07:31:37 51°13.635 2°56.018 20.3104 -999 -999 -999
2011-08-01 07:31:42 51°13.635 2°56.018 20.3116 -999 -999 -999
2011-08-01 07:31:47 51°13.635 2°56.018 20.3137 -999 -999 -999
2011-08-01 07:31:52 51°13.635 2°56.018 20.3153 -999 -999 -999
2011-08-01 07:31:57 51°13.635 2°56.018 20.3157 -999 -999 -999
2011-08-01 07:32:02 51°13.635 2°56.018 20.3161 -999 -999 -999
2011-08-01 07:32:07 51°13.635 2°56.018 20.3168 -999 -999 -999
2011-08-01 07:32:12 51°13.635 2°56.018 20.3181 -999 -999 -999
2011-08-01 07:32:17 51°13.635 2°56.018 20.3199 -999 -999 -999
2011-08-01 07:32:22 51°13.635 2°56.018 20.3217 -999 -999 -999
2011-08-01 07:32:27 51°13.635 2°56.018 20.3239 -999 -999 -999
2011-08-01 07:32:32 51°13.635 2°56.018 20.326 -999 -999 -999
2011-08-01 07:32:37 51°13.635 2°56.018 20.3274 -999 -999 -999
2011-08-01 07:32:42 51°13.635 2°56.018 20.3281 -999 -999 -999
2011-08-01 07:32:47 51°13.635 2°56.018 20.3302 -999 -999 -999
2011-08-01 07:32:51 51°13.635 2°56.018 20.3305 -999 -999 -999
2011-08-01 07:32:57 51°13.635 2°56.018 20.3321 -999 -999 -999
2011-08-01 07:33:02 51°13.635 2°56.018 20.3336 -999 -999 -999
2011-08-01 07:33:07 51°13.635 2°56.018 20.3339 -999 -999 -999
2011-08-01 07:33:12 51°13.635 2°56.018 20.3354 -999 -999 -999
2011-08-01 07:33:17 51°13.635 2°56.018 20.3354 -999 -999 -999
2011-08-01 07:33:22 51°13.635 2°56.019 20.3347 -999 -999 -999
2011-08-01 07:33:27 51°13.635 2°56.019 20.336 -999 -999 -999
2011-08-01 07:33:32 51°13.635 2°56.019 20.3373 -999 -999 -999
2011-08-01 07:33:37 51°13.636 2°56.019 20.3375 -999 -999 -999
2011-08-01 07:33:42 51°13.636 2°56.019 20.338 -999 -999 -999
2011-08-01 07:33:47 51°13.636 2°56.019 20.3378 -999 -999 -999
2011-08-01 07:33:52 51°13.636 2°56.019 20.3389 -999 -999 -999
2011-08-01 07:33:57 51°13.636 2°56.019 20.3394 -999 -999 -999
2011-08-01 07:34:02 51°13.636 2°56.019 20.34 -999 -999 -999
2011-08-01 07:34:07 51°13.636 2°56.019 20.339 -999 -999 -999
2011-08-01 07:34:12 51°13.637 2°56.019 20.3414 -999 -999 -999
2011-08-01 07:34:17 51°13.637 2°56.019 20.3419 -999 -999 -999
2011-08-01 07:34:22 51°13.637 2°56.019 20.3435 -999 -999 -999
2011-08-01 07:34:27 51°13.637 2°56.018 20.3447 -999 -999 -999
2011-08-01 07:34:32 51°13.636 2°56.018 20.3461 -999 -999 -999
2011-08-01 07:34:37 51°13.636 2°56.018 20.3478 -999 -999 -999
2011-08-01 07:34:42 51°13.636 2°56.018 20.3492 -999 -999 -999
2011-08-01 07:34:47 51°13.636 2°56.018 20.3498 -999 -999 -999
2011-08-01 07:34:52 51°13.637 2°56.018 20.3501 -999 -999 -999
2011-08-01 07:34:57 51°13.637 2°56.018 20.3516 -999 -999 -999
2011-08-01 07:35:02 51°13.637 2°56.018 20.3518 -999 -999 -999